This is the latest recevied weather packets stored in our database for station/object KE5YIM-13. If no packets are shown the sender has not sent any weather packets the latest 10 day(s).
| Time | Temp. | Humidity | Pressure | Rain* | Wind** | Luminosity | Snow |
|---|---|---|---|---|---|---|---|
| 1777941573 | 13.89° C | 72% | 1011.8 hPa | 0 mm | - | 0 W/m² | - |
| 1777941271 | 13.89° C | 71% | 1011.8 hPa | 0 mm | - | 0 W/m² | - |
| 1777940967 | 13.89° C | 70% | 1011.6 hPa | 0 mm | - | 0 W/m² | - |
| 1777940663 | 13.89° C | 70% | 1011.6 hPa | 0 mm | - | 0 W/m² | - |
| 1777940361 | 13.89° C | 69% | 1011.7 hPa | 0 mm | - | 0 W/m² | - |
| 1777940059 | 13.89° C | 69% | 1011.8 hPa | 0 mm | - | 0 W/m² | - |
| 1777939756 | 13.89° C | 68% | 1011.4 hPa | 0 mm | - | 0 W/m² | - |
| 1777939454 | 14.44° C | 68% | 1011.4 hPa | 0 mm | - | 1 W/m² | - |
| 1777939150 | 14.44° C | 67% | 1011.3 hPa | 0 mm | - | 2 W/m² | - |
| 1777938848 | 14.44° C | 66% | 1011.2 hPa | 0 mm | - | 3 W/m² | - |
| 1777938543 | 14.44° C | 65% | 1011.3 hPa | 0 mm | - | 5 W/m² | - |
| 1777938241 | 15° C | 65% | 1011 hPa | 0 mm | - | 7 W/m² | - |
| 1777937937 | 15° C | 65% | 1011.1 hPa | 0 mm | - | 10 W/m² | - |
| 1777937633 | 15° C | 64% | 1011 hPa | 0 mm | - | 13 W/m² | - |
| 1777937330 | 15° C | 63% | 1010.8 hPa | 0 mm | - | 16 W/m² | - |
| 1777937027 | 15° C | 63% | 1010.9 hPa | 0 mm | - | 20 W/m² | - |
| 1777936724 | 15.56° C | 62% | 1010.9 hPa | 0 mm | - | 23 W/m² | - |
| 1777936421 | 15.56° C | 61% | 1010.8 hPa | 0 mm | - | 27 W/m² | - |
| 1777936117 | 15.56° C | 60% | 1010.6 hPa | 0 mm | - | 31 W/m² | - |
| 1777935815 | 15.56° C | 61% | 1010.8 hPa | 0 mm | - | 34 W/m² | - |
| 1777935513 | 16.11° C | 61% | 1010.7 hPa | 0 mm | - | 37 W/m² | - |
| 1777935209 | 16.11° C | 61% | 1010.6 hPa | 0 mm | - | 40 W/m² | - |
| 1777934907 | 16.11° C | 60% | 1010.5 hPa | 0 mm | - | 42 W/m² | - |
| 1777934604 | 16.11° C | 60% | 1010.6 hPa | 0 mm | - | 49 W/m² | - |
| 1777934300 | 16.67° C | 59% | 1010.7 hPa | 0 mm | - | 61 W/m² | - |
* Rain latest hour (hover to see other rain measurements)
** Current wind speed in m/s (hover to see current wind gust speed)